Temperature
19 20 20 19 18 17 17 17 17 17 16 16 16 15 15 15 15 15 15 15 15 15 15 15 15 15 15 15 15 15 15 15 16 16 16 16 16 16 15 15 15 14 13
21 20 20 19 18 17 17 17 17 17 16 16 16 15 15 15 16 15 15 15 15 15 15 15 15 15 15 15 15 15 15 15 15 15 15 15 15 15 15 15 15 14 14
20 20 20 19 18 18 17 17 17 17 16 16 16 16 16 16 16 15 15 15 15 15 15 16 16 16 15 15 15 15 15 15 15 15 15 15 15 15 15 15 14 14 14
20 20 20 19 19 18 18 17 17 17 16 16 16 17 17 16 16 15 15 15 15 15 15 16 16 16 15 15 15 15 15 15 15 15 15 15 15 15 14 14 14 14 14
20 20 20 19 19 18 18 17 17 16 16 17 17 17 17 16 16 15 15 15 15 15 16 16 16 16 15 15 15 15 14 15 15 15 14 14 14 14 14 14 14 13 13
19 19 19 19 18 18 18 17 17 16 17 17 17 18 18 17 16 16 16 15 15 16 16 16 16 16 15 15 15 15 14 15 15 14 14 14 14 14 14 13 13 13 13
19 19 18 18 18 18 18 17 17 17 17 17 18 18 18 18 17 17 16 16 16 16 16 16 16 16 16 15 15 15 15 15 15 14 14 14 14 14 13 13 13 13 13
19 18 18 18 18 18 18 18 17 17 17 17 17 18 18 18 18 17 17 16 16 16 16 16 16 16 16 15 15 15 15 15 15 14 14 14 14 14 13 13 13 13 13
18 18 18 18 18 18 18 18 18 18 18 18 18 18 18 18 18 18 17 17 17 16 16 16 16 16 16 16 16 15 15 15 15 15 14 14 14 13 13 13 12 12 12
17 17 18 18 18 18 18 18 18 18 18 18 18 18 18 18 18 18 17 17 17 16 16 16 16 16 16 16 16 16 16 15 15 15 14 14 13 13 13 13 12 12 12
17 17 18 18 18 18 18 18 18 18 17 18 18 18 18 18 17 17 17 17 17 16 16 16 16 16 16 16 16 16 15 15 15 15 14 14 13 13 13 13 12 12 12
17 17 17 18 18 18 18 18 18 18 18 18 17 17 17 17 17 17 17 17 16 16 16 16 16 16 16 15 15 15 15 15 15 15 14 14 13 13 13 13 12 12 12
17 17 17 17 17 18 18 18 18 18 18 17 17 17 17 17 17 17 17 17 16 16 16 16 16 16 15 15 15 15 15 15 15 15 14 14 13 13 13 13 13 13 13
17 17 17 17 17 17 17 17 17 18 18 17 17 17 16 16 16 17 16 16 16 16 16 16 16 15 15 15 15 15 15 15 14 14 14 14 13 13 13 13 13 13 13
17 17 17 17 17 17 17 17 17 17 17 17 16 16 16 16 16 16 16 16 15 15 15 15 15 15 15 15 15 14 14 14 14 14 14 13 13 13 13 13 13 13 13
17 17 17 17 17 17 17 17 17 17 17 16 16 16 16 16 16 16 16 15 15 15 15 14 14 14 14 14 14 14 14 14 14 14 13 13 13 13 13 12 12 12 12
18 17 17 17 17 17 17 16 16 16 16 16 16 16 15 15 15 15 15 15 15 14 14 14 14 14 14 13 13 13 13 13 13 13 13 13 13 13 12 12 12 12 11
17 17 17 17 16 16 16 16 16 16 16 16 16 15 15 15 15 15 15 15 15 14 14 14 13 13 13 13 13 13 12 12 13 13 13 13 12 12 12 12 12 11 11
18 17 17 17 17 16 16 16 16 16 16 16 15 15 15 15 15 15 15 15 14 14 14 13 13 13 13 13 12 12 12 12 12 12 12 12 12 12 12 11 11 11 11
18 17 17 17 17 16 16 16 16 15 15 15 15 15 15 15 15 15 14 14 14 13 13 13 13 13 13 13 12 12 12 12 11 12 12 12 11 11 11 11 11 11 10
17 17 17 17 16 16 16 15 15 15 16 15 15 15 15 15 15 14 14 14 14 14 13 13 13 13 13 13 12 12 12 11 11 11 11 11 11 11 11 11 11 10 10
17 17 17 16 16 16 16 15 15 15 15 15 15 15 15 14 14 14 14 14 14 13 13 13 13 13 13 12 12 12 11 11 12 12 11 11 11 11 11 10 10 10 10
16 16 16 16 16 16 15 15 15 15 15 15 15 15 15 14 14 14 14 13 13 13 13 13 13 12 12 12 12 11 11 11 12 12 12 11 11 11 11 10 10 9 9
15 15 15 15 15 15 15 15 14 14 14 14 14 14 14 14 14 13 13 13 13 13 13 13 12 12 12 12 12 11 11 11 11 11 11 11 11 11 10 10 9 9 8
13 13 13 13 13 14 14 14 14 14 14 14 14 14 14 14 13 13 13 13 13 12 12 12 12 12 12 11 11 11 11 10 10 10 10 10 11 11 10 10 9 8 8
12 12 12 12 12 12 12 13 13 13 13 13 13 13 13 13 13 13 13 12 12 12 12 12 12 11 11 11 11 10 10 10 9 9 9 9 9 10 9 9 9 8 7
Wind_Speed
8 15 20 19 17 16 15 15 15 16 16 17 16 15 13 11 10 9 11 13 14 15 16 15 15 15 15 15 16 17 17 17 16 15 14 14 14 14 13 12 11 10 11
11 17 21 20 18 17 16 16 17 17 17 17 16 14 12 10 9 10 13 15 16 16 15 15 14 14 14 14 15 16 16 15 15 13 13 12 12 12 11 10 9 9 9
14 17 20 20 18 18 18 18 18 18 18 17 16 14 12 10 10 13 15 16 16 16 15 14 14 13 13 13 13 13 12 11 10 8 9 8 9 10 9 8 8 8 8
17 17 18 20 19 18 18 19 19 18 18 17 15 13 12 11 13 16 16 16 16 15 14 14 13 12 12 11 11 10 9 7 5 5 5 6 7 8 8 7 7 7 7
14 15 18 20 19 19 19 19 19 19 18 16 15 13 13 13 15 16 16 15 15 14 13 12 11 10 9 9 9 8 8 8 9 10 8 7 6 7 7 8 8 9 9
11 15 18 19 19 19 19 19 19 18 17 16 14 13 13 13 14 15 15 14 13 13 12 11 10 8 7 7 7 7 9 9 11 11 8 6 5 7 8 9 11 12 14
11 14 17 19 19 19 19 20 19 18 17 16 14 14 13 13 13 13 13 13 12 11 11 10 9 7 6 5 5 7 9 10 11 9 7 6 5 8 10 12 13 14 16
12 13 16 18 18 18 19 19 19 18 17 16 15 14 13 12 12 12 12 12 11 10 10 9 8 7 5 4 4 6 8 8 9 7 6 6 7 10 12 14 14 15 15
13 12 13 16 17 17 18 18 18 18 18 17 16 15 14 12 12 12 11 11 10 9 8 8 7 6 5 3 3 5 6 7 9 7 6 6 9 12 14 14 14 14 14
8 9 10 13 14 15 15 17 18 18 18 17 17 16 15 13 12 11 11 10 10 9 8 7 6 6 4 3 2 4 5 8 9 8 7 8 11 13 14 14 13 12 12
9 7 8 10 12 13 14 14 17 18 18 18 17 17 15 13 12 10 10 10 10 10 9 7 6 6 4 3 1 2 5 7 8 9 10 11 13 13 13 12 11 11 10
9 8 7 8 10 12 11 12 14 14 15 15 15 16 15 13 12 11 11 11 11 11 10 8 7 6 5 4 2 1 4 6 7 9 11 13 13 12 11 10 10 9 9
10 9 8 7 10 11 9 11 11 12 13 14 15 16 15 13 11 10 10 11 11 11 10 8 7 6 6 5 5 3 3 8 9 9 12 13 12 11 10 9 9 9 9
8 8 8 8 8 10 10 10 11 10 11 11 15 16 14 10 9 10 10 11 12 12 11 10 9 9 8 9 8 6 4 9 10 11 12 14 13 11 11 10 10 9 9
8 8 9 9 8 9 9 8 10 10 12 14 15 16 16 11 8 10 11 12 13 13 12 10 10 9 9 10 10 8 7 9 12 13 13 14 14 13 12 11 11 11 11
9 9 8 9 8 10 7 6 7 11 13 14 15 17 18 15 12 10 10 11 13 14 14 13 12 9 8 9 8 10 9 10 14 15 15 15 16 15 14 13 12 12 12
9 9 9 9 8 8 8 8 9 11 12 12 14 18 19 18 15 12 9 9 13 16 15 12 11 9 6 6 6 8 9 10 14 15 16 16 16 16 16 15 14 14 14
8 8 9 8 8 9 7 7 8 10 10 11 13 15 18 19 18 14 9 8 14 15 12 7 6 6 6 6 6 5 6 8 12 15 16 16 16 16 17 17 16 16 15
7 7 7 6 7 8 8 7 8 8 8 10 11 12 14 16 17 14 9 10 13 10 8 7 7 6 6 6 7 6 5 5 7 12 12 15 17 18 18 18 18 17 16
4 4 3 3 3 4 4 4 4 5 5 8 9 11 13 14 14 13 9 9 10 6 7 7 7 7 5 6 6 5 4 4 4 6 10 13 16 18 19 18 18 18 17
7 7 5 3 1 1 2 2 3 5 5 5 7 12 13 13 13 11 6 6 6 8 9 9 7 7 6 4 3 3 3 4 6 6 7 8 11 16 18 19 19 18 17
7 7 6 5 3 2 1 2 2 3 4 5 4 8 12 12 13 11 8 8 7 7 8 9 8 5 5 5 5 3 3 4 6 6 6 8 9 12 14 18 18 19 19
7 6 5 5 4 3 2 1 1 1 1 2 3 4 6 10 12 12 10 8 8 8 9 10 10 9 8 6 5 5 5 8 5 4 6 8 8 8 9 14 17 19 20
5 5 6 6 6 5 4 2 2 1 2 2 3 3 5 7 8 10 11 9 9 8 9 10 10 9 8 7 5 5 5 4 5 4 3 5 7 9 10 10 15 18 20
5 6 6 7 8 7 6 5 3 2 1 3 3 4 5 4 6 7 8 7 8 8 9 9 9 9 8 8 7 5 6 3 3 4 6 4 4 6 9 9 11 15 19
6 7 7 8 8 8 8 7 6 5 4 4 4 4 4 4 4 5 5 5 6 7 8 9 8 9 9 9 8 6 6 5 6 7 10 7 5 3 4 5 6 10 14
Wind_Direction
152 159 152 149 147 145 142 139 136 134 130 124 117 110 103 99 98 101 104 107 105 101 95 91 88 86 85 86 88 89 89 87 86 85 82 78 76 81 86 79 76 74 72
146 155 151 148 148 144 140 136 132 130 128 124 118 111 106 104 106 113 111 108 106 102 99 96 93 91 90 91 93 94 93 92 90 88 86 83 82 83 86 84 83 84 78
141 150 151 147 146 142 138 136 133 131 128 123 118 112 108 108 113 118 115 112 108 104 102 100 99 97 96 96 98 98 97 97 95 92 88 83 85 87 88 85 83 85 85
141 146 149 145 145 142 139 136 134 132 128 124 119 115 113 111 113 116 114 112 109 107 106 105 104 104 102 101 100 97 90 87 91 121 110 84 84 90 91 91 88 87 90
134 142 148 146 145 144 141 138 135 132 129 126 123 120 119 114 111 113 112 112 113 112 112 111 110 108 104 101 96 84 70 74 101 121 117 96 84 92 94 92 94 93 93
127 138 146 145 146 144 142 139 137 135 133 131 129 128 126 120 114 115 117 118 119 120 120 118 117 113 106 98 84 66 59 75 117 127 118 108 96 101 103 100 101 93 89
130 137 143 144 145 144 143 142 141 140 139 138 138 137 134 129 126 125 128 129 129 129 129 127 126 124 118 105 83 65 61 86 123 131 126 119 117 115 111 106 98 92 89
137 139 143 144 144 145 146 146 146 146 145 145 146 145 143 142 142 141 141 141 140 139 137 136 135 136 136 125 91 67 64 86 125 135 129 127 124 118 112 105 100 94 91
138 138 141 144 145 146 148 151 152 152 152 152 152 151 150 151 153 154 154 153 150 147 144 143 143 147 152 149 103 69 70 104 128 139 133 132 130 123 115 109 104 100 96
134 138 140 144 147 148 151 155 157 158 158 157 156 155 156 158 160 161 164 163 160 158 156 155 156 161 170 177 131 84 93 118 128 136 135 138 132 124 119 115 111 107 103
146 150 149 150 152 155 157 161 161 163 164 162 161 161 162 164 167 169 173 175 173 171 170 172 176 182 193 211 201 100 113 130 133 135 138 140 134 128 126 122 120 117 113
166 172 169 167 165 163 165 163 164 164 167 166 167 168 171 175 179 182 186 185 182 182 184 190 194 199 212 241 259 138 134 154 153 147 147 145 142 139 137 134 131 128 125
169 172 179 178 175 172 166 162 166 167 170 174 177 179 181 185 191 195 195 194 190 189 194 203 206 213 229 252 265 250 184 178 177 171 164 159 156 156 154 151 146 143 139
166 170 173 172 175 181 173 172 172 171 177 182 189 191 187 189 197 202 201 200 196 196 200 206 212 222 235 248 254 249 209 186 186 184 179 172 170 171 171 168 164 160 156
180 179 173 166 167 176 176 181 181 182 187 193 197 201 199 197 199 201 206 206 206 204 205 211 218 225 231 239 241 236 216 197 193 189 189 184 180 180 183 182 179 174 170
196 194 184 175 169 170 174 182 187 194 198 199 202 206 207 207 203 200 204 207 211 210 211 213 217 222 227 226 228 226 216 200 198 195 195 192 188 186 189 191 190 186 181
200 199 195 191 179 176 181 187 190 193 198 203 208 211 212 213 209 203 203 208 213 214 214 216 221 224 229 225 226 223 212 201 199 200 200 197 195 193 194 197 197 195 192
190 197 202 202 192 193 194 197 198 198 198 205 211 213 214 215 215 210 211 214 213 211 211 211 212 216 224 222 223 223 213 204 203 205 204 202 199 198 199 202 201 200 200
180 184 190 197 198 203 205 208 213 213 212 213 214 216 217 216 216 214 220 221 213 210 211 213 212 206 214 220 223 224 220 210 205 207 208 207 205 202 201 205 204 203 203
116 126 151 175 200 207 209 215 227 233 232 229 224 224 222 221 219 217 223 225 215 213 217 213 211 208 210 210 218 229 234 233 218 211 210 211 211 208 205 204 202 203 204
74 78 75 82 64 125 162 195 217 232 236 236 234 234 231 228 223 217 223 225 216 221 224 218 213 212 217 177 176 254 280 252 236 227 215 212 213 212 209 205 199 197 201
70 66 65 58 49 57 155 193 205 223 239 242 247 243 240 236 231 225 221 224 220 224 228 224 215 215 212 179 176 186 265 288 256 226 210 215 215 210 210 207 202 198 198
64 54 50 40 41 37 30 88 53 35 330 299 265 261 256 248 241 234 231 227 225 221 228 226 218 216 221 206 193 175 194 231 254 266 228 220 211 210 211 207 205 203 200
71 53 43 33 33 27 33 56 82 156 251 265 276 277 286 275 263 252 244 238 234 229 229 230 223 221 218 215 217 228 217 187 199 257 265 233 218 216 213 210 208 206 203
72 56 42 39 35 26 32 39 47 24 288 295 307 309 306 300 286 273 259 249 245 239 235 233 227 221 218 218 205 205 225 234 222 227 262 260 244 230 218 212 208 206 203
64 52 43 44 35 24 26 28 30 14 350 343 336 330 320 313 310 308 287 264 255 251 245 240 234 227 224 223 216 202 196 199 208 214 238 242 241 245 230 217 208 201 195
Height
1539 1543 1546 1548 1550 1552 1553 1555 1556 1557 1558 1559 1559 1559 1559 1559 1559 1559 1559 1559 1560 1560 1560 1559 1559 1559 1559 1560 1560 1560 1560 1560 1560 1560 1559 1558 1558 1557 1556 1556 1555 1555 1555
1539 1542 1546 1548 1550 1552 1554 1555 1556 1557 1558 1559 1559 1559 1559 1559 1559 1560 1560 1561 1561 1561 1561 1560 1560 1560 1560 1560 1561 1561 1561 1561 1561 1560 1560 1559 1559 1558 1558 1557 1557 1556 1556
1540 1543 1546 1548 1550 1552 1554 1555 1557 1558 1559 1559 1559 1560 1560 1560 1560 1561 1562 1562 1563 1563 1562 1562 1561 1561 1561 1561 1562 1562 1562 1562 1562 1561 1561 1561 1560 1560 1559 1559 1559 1558 1558
1541 1543 1546 1549 1551 1552 1554 1556 1557 1558 1559 1559 1560 1560 1561 1561 1562 1563 1563 1564 1564 1564 1564 1563 1563 1563 1563 1563 1563 1563 1563 1562 1563 1562 1562 1562 1562 1561 1561 1561 1560 1560 1560
1541 1544 1546 1549 1551 1553 1555 1556 1557 1558 1559 1560 1561 1561 1561 1562 1563 1564 1564 1565 1565 1565 1565 1565 1565 1565 1565 1565 1565 1565 1564 1564 1564 1563 1563 1563 1563 1562 1562 1562 1562 1561 1561
1541 1544 1547 1549 1551 1553 1555 1556 1557 1558 1559 1560 1561 1562 1562 1563 1564 1564 1565 1566 1566 1567 1567 1567 1567 1567 1567 1567 1567 1566 1566 1565 1565 1564 1564 1564 1564 1563 1563 1563 1563 1563 1562
1542 1544 1547 1550 1552 1554 1555 1557 1558 1559 1560 1561 1561 1562 1563 1564 1564 1565 1566 1567 1567 1568 1568 1568 1569 1569 1569 1569 1568 1568 1567 1566 1566 1565 1565 1565 1564 1564 1564 1564 1564 1563 1563
1542 1545 1547 1550 1552 1554 1555 1557 1558 1559 1560 1561 1562 1563 1563 1564 1565 1566 1567 1567 1568 1569 1569 1569 1570 1570 1570 1570 1569 1569 1568 1567 1567 1566 1566 1565 1565 1565 1565 1565 1564 1564 1563
1543 1545 1547 1549 1552 1554 1555 1557 1558 1559 1560 1561 1562 1563 1564 1565 1566 1566 1567 1568 1568 1569 1570 1570 1570 1571 1571 1571 1570 1569 1569 1568 1568 1567 1567 1566 1566 1565 1565 1565 1565 1564 1564
1544 1546 1547 1549 1551 1553 1555 1556 1558 1559 1560 1562 1563 1564 1565 1566 1566 1567 1568 1568 1569 1570 1570 1570 1571 1571 1571 1571 1570 1570 1569 1569 1568 1568 1567 1567 1566 1566 1565 1565 1564 1564 1563
1544 1545 1547 1549 1551 1553 1554 1556 1557 1559 1560 1561 1563 1564 1565 1566 1567 1568 1568 1569 1570 1570 1571 1571 1571 1571 1571 1571 1570 1569 1569 1569 1568 1568 1567 1567 1566 1566 1565 1565 1564 1563 1562
1543 1545 1546 1548 1550 1552 1554 1555 1556 1558 1559 1561 1562 1563 1564 1566 1567 1568 1569 1569 1570 1570 1571 1571 1571 1571 1571 1571 1571 1570 1569 1568 1568 1568 1567 1567 1566 1565 1565 1564 1563 1562 1561
1543 1544 1546 1548 1550 1551 1553 1554 1556 1557 1559 1560 1561 1562 1563 1564 1565 1566 1568 1568 1569 1570 1570 1570 1571 1571 1571 1571 1570 1570 1569 1568 1568 1567 1567 1566 1565 1565 1564 1563 1562 1561 1560
1543 1544 1545 1547 1548 1550 1552 1554 1555 1556 1557 1559 1560 1561 1562 1563 1564 1565 1566 1567 1568 1569 1569 1569 1569 1569 1569 1569 1569 1569 1568 1567 1566 1566 1566 1565 1564 1563 1562 1561 1560 1559 1559
1542 1543 1544 1546 1547 1549 1550 1552 1553 1555 1556 1558 1559 1560 1561 1561 1562 1563 1564 1565 1565 1566 1567 1567 1567 1567 1567 1567 1567 1567 1566 1565 1564 1564 1564 1563 1563 1562 1561 1560 1559 1558 1557
1541 1543 1544 1545 1546 1547 1549 1550 1552 1553 1555 1556 1557 1558 1559 1560 1560 1561 1561 1562 1562 1563 1564 1564 1564 1564 1564 1564 1564 1564 1563 1563 1562 1562 1561 1561 1561 1560 1559 1558 1557 1556 1555
1539 1541 1543 1544 1545 1546 1547 1549 1550 1551 1553 1554 1555 1556 1557 1558 1558 1558 1558 1558 1559 1560 1561 1561 1561 1561 1561 1560 1560 1560 1560 1560 1559 1559 1558 1558 1558 1557 1557 1556 1555 1554 1554
1538 1539 1541 1543 1544 1545 1546 1547 1549 1550 1550 1551 1552 1553 1554 1555 1555 1556 1556 1556 1556 1557 1557 1557 1557 1557 1557 1557 1556 1556 1556 1556 1556 1556 1555 1554 1554 1554 1554 1553 1553 1552 1552
1536 1537 1539 1540 1541 1543 1544 1545 1546 1547 1548 1549 1550 1550 1551 1551 1552 1552 1552 1553 1553 1553 1553 1553 1553 1553 1553 1553 1553 1553 1552 1552 1552 1552 1551 1551 1551 1551 1551 1551 1550 1550 1550
1533 1534 1536 1537 1538 1540 1541 1542 1543 1544 1545 1546 1546 1547 1548 1548 1548 1548 1549 1549 1549 1549 1549 1549 1549 1549 1549 1549 1549 1548 1548 1547 1547 1547 1547 1547 1546 1546 1546 1547 1547 1547 1547
1530 1531 1533 1534 1535 1536 1537 1538 1538 1539 1540 1541 1542 1543 1543 1544 1544 1544 1544 1544 1544 1544 1544 1544 1544 1544 1544 1544 1544 1543 1542 1542 1541 1541 1541 1541 1541 1541 1541 1541 1542 1543 1543
1527 1528 1529 1530 1531 1532 1532 1533 1534 1535 1535 1536 1537 1538 1538 1538 1539 1539 1539 1539 1539 1538 1538 1539 1539 1538 1538 1539 1538 1537 1536 1536 1534 1534 1534 1534 1534 1535 1535 1535 1536 1537 1538
1524 1525 1526 1526 1527 1527 1528 1529 1529 1529 1530 1531 1531 1532 1532 1533 1533 1533 1533 1533 1532 1532 1532 1532 1532 1532 1531 1532 1532 1532 1530 1527 1528 1527 1527 1527 1527 1527 1528 1528 1529 1530 1532
1521 1521 1522 1522 1523 1523 1523 1523 1524 1524 1524 1525 1525 1526 1526 1526 1526 1526 1526 1526 1526 1526 1525 1526 1526 1525 1525 1524 1524 1524 1524 1523 1523 1520 1520 1520 1520 1520 1520 1521 1522 1523 1525
1518 1518 1519 1519 1519 1519 1519 1519 1519 1519 1519 1519 1519 1519 1520 1520 1520 1519 1519 1519 1519 1519 1519 1519 1519 1519 1518 1518 1517 1517 1517 1516 1515 1515 1513 1513 1513 1513 1513 1514 1514 1515 1516
1516 1516 1516 1516 1516 1516 1516 1515 1515 1514 1514 1514 1514 1513 1513 1514 1514 1513 1513 1513 1512 1512 1512 1512 1512 1512 1512 1511 1511 1510 1510 1509 1508 1508 1507 1505 1505 1506 1506 1506 1506 1506 1508